Location: *
(50.9167°S, 179.4000°W)
Time: 21:28:02
(UTC+00:00)

Thor Agena Rocket - Pass Details

Date: 03 March 2024
Orbit: 757 x 806 km, 99.1° (Epoch: 16 April)

Event Time Altitude Azimuth Distance (km) Brightness Sun altitude
Exits shadow 14:33:11 69° 279° (W) 827 3.4 -24.8°
Drops below altitude 10° 14:38:14 10° 200° (SSW) 2,327 6.3 -24.3°
Sets 14:40:35 0° 197° (SSW) 3,262 7.2 -24.0°
